User: anonymous   Login
Location: Unspecified
(0.0000°N, 0.0000°E)
Time: 14:00:58
(UTC+00:00)
Language:

YUBILEINY - Orbit

View from above orbital plane
View from above orbital plane
View from above satellite
View from above satellite

Ground track
Ground track

The orbit data is extracted from the following two-line orbital elements,

1 32953U 08025A   18050.85404677 +.00000016 +00000-0 +43631-4 0  9990
2 32953 082.4996 085.6544 0020380 105.5392 254.7939 12.43081794442190
Epoch (UTC): 19 February 2018 20:29:49
Eccentricity: 0.0020380
inclination: 82.4996°
perigee height: 1477 km
apogee height: 1509 km
right ascension of ascending node: 85.6544°
argument of perigee: 105.5392°
revolutions per day: 12.43081794
mean anomaly at epoch: 254.7939°
orbit number at epoch: 44219

The dashed part of the orbit path shows where the satellite is in the earth's shadow,  

DLR